| time (UTC) | temp F | wind direction | speed knots | gust knots | rain 1hr in | rain 24hr in | rain mn in | humidity % | barometer mb |
| 20260507143057 | 57 | 280 | 0.0 | 5.2 | 0.00 | 0.00 | 0.00 | 44 | 1014.1 |
| 20260507141615 | 57 | 343 | 1.7 | 8.7 | 0.00 | 0.00 | 0.00 | 43 | 1014.1 |
| 20260507140050 | 55 | 343 | 4.3 | 8.7 | 0.00 | 0.00 | 0.00 | 47 | 1014.2 |
| 20260507134547 | 51 | 38 | 1.7 | 3.5 | 0.00 | 0.00 | 0.00 | 55 | 1014.0 |
| 20260507133042 | 49 | 23 | 0.0 | 0.9 | 0.00 | 0.00 | 0.00 | 58 | 1013.8 |
| 20260507131543 | 48 | 60 | 0.0 | 0.9 | 0.00 | 0.00 | 0.00 | 58 | 1013.7 |
| 20260507130039 | 48 | 345 | 1.7 | 3.5 | 0.00 | 0.00 | 0.00 | 58 | 1013.6 |
| 20260507124535 | 46 | 333 | 1.7 | 4.3 | 0.00 | 0.00 | 0.00 | 59 | 1013.4 |
| 20260507123034 | 45 | 306 | 0.9 | 2.6 | 0.00 | 0.00 | 0.00 | 60 | 1013.3 |
| 20260507121532 | 44 | 290 | 0.0 | 1.7 | 0.00 | 0.00 | 0.00 | 60 | 1013.1 |
| 20260507120032 | 43 | 266 | 0.0 | 1.7 | 0.00 | 0.00 | 0.00 | 61 | 1013.0 |
| 20260507114601 | 43 | 305 | 0.9 | 2.6 | 0.00 | 0.00 | 0.00 | 61 | 1012.9 |
| 20260507113058 | 43 | 307 | 0.0 | 2.6 | 0.00 | 0.00 | 0.00 | 58 | 1012.9 |
| 20260507111556 | 43 | 302 | 0.0 | 0.9 | 0.00 | 0.00 | 0.00 | 56 | 1012.8 |
| 20260507110055 | 43 | 284 | 0.0 | 0.0 | 0.00 | 0.00 | 0.00 | 58 | 1012.7 |
| 20260507104556 | 44 | 284 | 0.0 | 1.7 | 0.00 | 0.00 | 0.00 | 56 | 1012.5 |
| 20260507103053 | 43 | 325 | 0.0 | 0.9 | 0.00 | 0.00 | 0.00 | 55 | 1012.4 |
| 20260507101552 | 43 | 325 | 0.0 | 2.6 | 0.00 | 0.00 | 0.00 | 56 | 1012.3 |
| 20260507100049 | 42 | 25 | 3.5 | 5.2 | 0.00 | 0.00 | 0.00 | 58 | 1012.4 |
| 20260507094549 | 43 | 300 | 0.0 | 3.5 | 0.00 | 0.00 | 0.00 | 57 | 1012.1 |
| 20260507093048 | 43 | 248 | 0.0 | 2.6 | 0.00 | 0.00 | 0.00 | 57 | 1011.9 |
| 20260507091545 | 43 | 25 | 0.0 | 2.6 | 0.00 | 0.00 | 0.00 | 56 | 1011.9 |
| 20260507090043 | 44 | 36 | 3.5 | 7.0 | 0.00 | 0.00 | 0.00 | 55 | 1012.2 |
| 20260507084544 | 44 | 34 | 4.3 | 7.0 | 0.00 | 0.00 | 0.00 | 57 | 1011.9 |
| 20260507083039 | 43 | 27 | 3.5 | 5.2 | 0.00 | 0.00 | 0.00 | 58 | 1011.4 |
| 20260507081535 | 43 | 7 | 0.9 | 2.6 | 0.00 | 0.00 | 0.00 | 56 | 1011.4 |
| 20260507080039 | 43 | 29 | 2.6 | 4.3 | 0.00 | 0.00 | 0.00 | 56 | 1011.4 |
| 20260507074532 | 41 | 31 | 1.7 | 6.1 | 0.00 | 0.00 | 0.00 | 55 | 1011.6 |
| 20260507073029 | 43 | 307 | 0.0 | 0.9 | 0.00 | 0.00 | 0.00 | 53 | 1011.3 |
| 20260507071528 | 44 | 39 | 1.7 | 3.5 | 0.00 | 0.00 | 0.00 | 51 | 1011.2 |
| 20260507070022 | 45 | 63 | 1.7 | 2.6 | 0.00 | 0.00 | 0.00 | 49 | 1011.0 |
| 20260507064520 | 47 | 32 | 4.3 | 7.8 | 0.00 | 0.00 | 0.00 | 48 | 1011.1 |
| 20260507064517 | 47 | 33 | 4.3 | 7.8 | 0.00 | 0.00 | 0.00 | 48 | 1011.1 |
| 20260507063014 | 48 | 15 | 4.3 | 7.0 | 0.00 | 0.00 | 0.00 | 46 | 1011.0 |
| 20260507061509 | 50 | 29 | 5.2 | 12.2 | 0.00 | 0.00 | 0.00 | 44 | 1010.9 |
| 20260507054602 | 53 | 59 | 10.4 | 20.0 | 0.00 | 0.00 | 0.00 | 35 | 1011.0 |
| 20260507053058 | 56 | 46 | 10.4 | 14.8 | 0.00 | 0.00 | 0.00 | 34 | 1010.8 |
| 20260507051554 | 58 | 86 | 6.1 | 9.6 | 0.00 | 0.00 | 0.00 | 31 | 1009.8 |
| 20260507050051 | 56 | 79 | 0.9 | 4.3 | 0.00 | 0.00 | 0.00 | 37 | 1009.7 |
| 20260507044559 | 56 | 20 | 1.7 | 4.3 | 0.00 | 0.00 | 0.00 | 38 | 1009.7 |
| 20260507043053 | 57 | 28 | 2.6 | 4.3 | 0.00 | 0.00 | 0.00 | 38 | 1009.6 |
| 20260507041550 | 57 | 7 | 0.0 | 2.6 | 0.00 | 0.00 | 0.00 | 43 | 1009.6 |
| 20260507040046 | 59 | 229 | 0.0 | 1.7 | 0.00 | 0.00 | 0.00 | 41 | 1009.4 |
| 20260507034548 | 60 | 220 | 0.9 | 1.7 | 0.00 | 0.00 | 0.00 | 40 | 1009.4 |
| 20260507033046 | 61 | 219 | 1.7 | 5.2 | 0.00 | 0.00 | 0.00 | 39 | 1009.4 |
| 20260507031546 | 63 | 251 | 3.5 | 7.0 | 0.00 | 0.00 | 0.00 | 38 | 1009.4 |
| 20260507030042 | 64 | 241 | 3.5 | 8.7 | 0.00 | 0.00 | 0.00 | 35 | 1009.9 |
| 20260507024544 | 57 | 248 | 0.9 | 3.5 | 0.00 | 0.00 | 0.00 | 35 | 1009.9 |
| 20260507023040 | 59 | 301 | 0.9 | 1.7 | 0.00 | 0.00 | 0.00 | 34 | 1009.3 |
| 20260507021541 | 63 | 359 | 0.9 | 2.6 | 0.00 | 0.00 | 0.00 | 28 | 1008.9 |
| 20260507020045 | 64 | 4 | 0.9 | 1.7 | 0.00 | 0.00 | 0.00 | 28 | 1008.9 |
| 20260507014537 | 67 | 14 | 1.7 | 4.3 | 0.00 | 0.00 | 0.00 | 26 | 1008.9 |
| 20260507013036 | 68 | 13 | 1.7 | 4.3 | 0.00 | 0.00 | 0.00 | 24 | 1009.0 |
| 20260507011535 | 69 | 355 | 1.7 | 7.8 | 0.00 | 0.00 | 0.00 | 23 | 1009.1 |
| 20260507010032 | 70 | 348 | 3.5 | 9.6 | 0.00 | 0.00 | 0.00 | 22 | 1009.1 |
| 20260507004533 | 71 | 333 | 4.3 | 12.2 | 0.00 | 0.00 | 0.00 | 22 | 1009.2 |
| 20260507003032 | 71 | 29 | 8.7 | 13.9 | 0.00 | 0.00 | 0.00 | 22 | 1009.4 |
| 20260507001535 | 72 | 328 | 6.1 | 11.3 | 0.00 | 0.00 | 0.00 | 22 | 1009.4 |
| 20260507000025 | 71 | 12 | 5.2 | 12.2 | 0.00 | 0.00 | 0.00 | 22 | 1009.5 |
| 20260506234523 | 71 | 324 | 6.1 | 12.2 | 0.00 | 0.00 | 0.00 | 23 | 1009.6 |
| 20260506233022 | 70 | 317 | 5.2 | 12.2 | 0.00 | 0.00 | 0.00 | 22 | 1009.5 |
| 20260506231520 | 71 | 307 | 7.0 | 11.3 | 0.00 | 0.00 | 0.00 | 22 | 1009.6 |
| 20260506230017 | 72 | 300 | 4.3 | 9.6 | 0.00 | 0.00 | 0.00 | 23 | 1009.7 |
| 20260506224515 | 70 | 13 | 1.7 | 8.7 | 0.00 | 0.00 | 0.00 | 23 | 1009.8 |
| 20260506223011 | 71 | 343 | 2.6 | 5.2 | 0.00 | 0.00 | 0.00 | 23 | 1010.1 |
| 20260506221508 | 69 | 276 | 0.9 | 3.5 | 0.00 | 0.00 | 0.00 | 23 | 1010.5 |
| 20260506220004 | 69 | 304 | 3.5 | 10.4 | 0.00 | 0.00 | 0.00 | 23 | 1010.8 |
| 20260506214502 | 69 | 283 | 6.1 | 12.2 | 0.00 | 0.00 | 0.00 | 23 | 1011.0 |
| 20260506213059 | 68 | 17 | 7.0 | 11.3 | 0.00 | 0.00 | 0.00 | 23 | 1011.2 |
| 20260506211556 | 66 | 269 | 3.5 | 6.1 | 0.00 | 0.00 | 0.00 | 24 | 1011.4 |
| 20260506210053 | 66 | 293 | 2.6 | 7.0 | 0.00 | 0.00 | 0.00 | 24 | 1011.8 |
| 20260506204554 | 66 | 336 | 3.5 | 7.8 | 0.00 | 0.00 | 0.00 | 23 | 1012.0 |
| 20260506203051 | 65 | 319 | 3.5 | 7.0 | 0.00 | 0.00 | 0.00 | 25 | 1012.3 |
| 20260506201543 | 64 | 248 | 1.7 | 7.0 | 0.00 | 0.00 | 0.00 | 25 | 1012.4 |
| 20260506200038 | 64 | 300 | 2.6 | 10.4 | 0.00 | 0.00 | 0.00 | 25 | 1012.7 |
| 20260506194539 | 63 | 242 | 3.5 | 8.7 | 0.00 | 0.00 | 0.00 | 24 | 1013.0 |
| 20260506193034 | 62 | 283 | 2.6 | 9.6 | 0.00 | 0.00 | 0.00 | 25 | 1013.2 |
| 20260506191534 | 61 | 238 | 3.5 | 9.6 | 0.00 | 0.00 | 0.00 | 26 | 1013.4 |
| 20260506190023 | 60 | 224 | 4.3 | 10.4 | 0.00 | 0.00 | 0.00 | 26 | 1013.6 |
| 20260506184526 | 59 | 181 | 4.3 | 10.4 | 0.00 | 0.00 | 0.00 | 28 | 1014.0 |
| 20260506183017 | 58 | 238 | 5.2 | 8.7 | 0.00 | 0.00 | 0.00 | 27 | 1014.3 |
| 20260506181513 | 57 | 245 | 6.1 | 10.4 | 0.00 | 0.00 | 0.00 | 28 | 1014.6 |
| 20260506180017 | 56 | 198 | 5.2 | 10.4 | 0.00 | 0.00 | 0.00 | 26 | 1014.9 |
| 20260506174506 | 56 | 243 | 4.3 | 11.3 | 0.00 | 0.00 | 0.00 | 26 | 1015.1 |
| 20260506173002 | 54 | 139 | 2.6 | 11.3 | 0.00 | 0.00 | 0.00 | 25 | 1015.4 |
| 20260506171604 | 54 | 240 | 4.3 | 11.3 | 0.00 | 0.00 | 0.00 | 29 | 1015.6 |
| 20260506170059 | 53 | 223 | 5.2 | 9.6 | 0.00 | 0.00 | 0.00 | 29 | 1016.0 |
| 20260506164557 | 52 | 230 | 3.5 | 8.7 | 0.00 | 0.00 | 0.00 | 34 | 1016.2 |
| 20260506163048 | 51 | 186 | 3.5 | 8.7 | 0.00 | 0.00 | 0.00 | 36 | 1016.3 |
| 20260506161542 | 49 | 162 | 2.6 | 7.0 | 0.00 | 0.00 | 0.00 | 39 | 1016.6 |
| 20260506160041 | 49 | 160 | 4.3 | 7.0 | 0.00 | 0.00 | 0.00 | 40 | 1016.7 |
| 20260506154532 | 47 | 198 | 3.5 | 6.1 | 0.00 | 0.00 | 0.00 | 43 | 1017.1 |
| 20260506153027 | 45 | 217 | 3.5 | 7.0 | 0.00 | 0.00 | 0.00 | 46 | 1017.4 |
| 20260506151531 | 44 | 213 | 2.6 | 6.1 | 0.00 | 0.00 | 0.00 | 46 | 1017.6 |
| 20260506150022 | 43 | 240 | 3.5 | 6.1 | 0.00 | 0.00 | 0.00 | 48 | 1017.7 |
| 20260506144515 | 42 | 261 | 0.9 | 5.2 | 0.00 | 0.00 | 0.00 | 48 | 1017.8 |